Regional Weather Roundup
Issued by NWS Bismarck, ND

Home | Current Version | Previous Version | Text Only | Print | Product List | Glossary On
Versions: 1 2 3 4 5 6 7 8 9 10 11 12 13 14 15 16 17 18 19 20 21 22 23 24 25 26 27 28 29 30 31 32 33 34 35 36 37 38 39 40 41 42 43 44 45 46 47 48 49 50
000
ASUS43 KBIS 232259
RWRBIS

NWR BROADCAST TEXT
NATIONAL WEATHER SERVICE BISMARCK ND
600 PM CDT WED JUL 23 2014

NOTE: "FAIR" INDICATES FEW OR NO CLOUDS BELOW 12,000 FEET WITH NO
SIGNIFICANT WEATHER AND/OR OBSTRUCTIONS TO VISIBILITY.


CITY           SKY/WX    TMP DP  RH WIND       PRES   REMARKS
WILLISTON      MOSUNNY   86  62  44 SE21G28   30.06F
MINOT          MOSUNNY   76  66  71 E16       30.15F
MINOT AFB      NOT AVBL
BISMARCK       SUNNY     83  59  44 SE17      30.15F
DICKINSON      NOT AVBL
GARRISON         N/A     79  64  60 SE14      30.15F
HETTINGER ARPT SUNNY     81  61  50 SE16G26   30.12F
JAMESTOWN      NOT AVBL
CROSBY           N/A     77  73  88 E15G24    30.11F
HARVEY         FAIR      75  66  73 SE10G17   30.19F
HAZEN          FAIR      79  63  57 SE14G21   30.14S
LINTON         FAIR      82  63  51 SE13G18   30.17F
MANDAN         FAIR      81  61  50 SE15G23   30.16F
RUGBY          FAIR      72  63  73 SE13      30.20F
TIOGA          FAIR      81  66  61 SE20G26   30.15F
WATFORD CITY   FAIR      82  63  51 SE18G25   30.07S
$$

CITY           SKY/WX    TMP DP  RH WIND       PRES   REMARKS
GRAND FORKS    MOSUNNY   75  58  55 VRB5      30.22F
GRAND FORKS AF NOT AVBL
DEVILS LAKE    MOSUNNY   73  57  56 SE7       30.22F
FARGO          MOSUNNY   78  58  49 N9        30.21F
CAVALIER       FAIR      73  52  46 NE7       30.24F
GRAFTON        FAIR      72  55  56 N7        30.23F
GWINNER        CLEAR     79  57  47 SE7       30.23F
LANGDON        FAIR      72  57  60 E8        30.25F
$$

CITY           SKY/WX    TMP DP  RH WIND       PRES   REMARKS
ABERDEEN       SUNNY     80  55  42 SE9       30.19F
MOBRIDGE       SUNNY     82  58  43 SE16      30.13F
BUFFALO          N/A     86  60  41 SE23G30   30.01F
RAPID CITY     SUNNY     84  63  49 SE15      30.11F
GLASGOW        MOSUNNY   92  58  31 E21G31    29.96F HX  91
SIDNEY         SUNNY    N/A N/A N/A SE10G17   30.03F
WOLF POINT     SUNNY     92  59  33 E16G22    29.99F HX  91
GLENDIVE       MOSUNNY   90  64  43 SE20G26   30.03F HX  91
MILES CITY     MOSUNNY   94  64  37 E15       29.95F HX  95
BAKER          SUNNY     86  63  45 SE22G33   30.06F
$$

CITY           SKY/WX    TMP DP  RH WIND       PRES   REMARKS
BILLINGS       MOSUNNY   90  56  31 E8        30.00F
GREAT FALLS    SUNNY     92  46  20 S6        29.96F
$$




USA.gov is the U.S. government's official web portal to all federal, state and local government web resources and services.